Weather History for KMHE - December, 2011

Change the Weather History Date:

Monday, December 12, 2011

  Actual Average Record
Temperature  
Mean Temperature 24 °F 21 °F  
Max Temperature 31 °F 30 °F 59 °F (1939)
Min Temperature 17 °F 12 °F -25 °F (1932)
Degree Days  
Heating Degree Days 41 44  
Month to date heating degree days 498 503  
Since 1 July heating degree days 1860 2071  
Cooling Degree Days 0 0  
Month to date cooling degree days 0 0  
Year to date cooling degree days 994 824  
Moisture  
Dew Point 23 °F    
Average Humidity 92    
Maximum Humidity 100    
Minimum Humidity 88    
Precipitation  
Precipitation 0.00 in 0.01 in 0.20 in (1902)
Month to date precipitation T 0.24  
Year to date precipitation 19.12 21.31  
Snow  
Snow 0.00 in - 5.50 in (1902)
Month to date snowfall T  
Since 1 July snowfall T  
Snow Depth 0.00 in    
Sea Level Pressure  
Sea Level Pressure 30.15 in    
Wind  
Wind Speed 8 mph (NW)    
Max Wind Speed 15 mph    
Max Gust Speed 20 mph    
Visibility 3 miles    
Events Fog    
T = Trace of Precipitation, MM = Missing Value Source: NWS Daily Summary

Daily Weather History Graph

Daily Weather History Graph

Search for Another Location

Airport or City:

Trip Planner

Search our weather history database for the weather conditions in past years. The results will help you decide how hot, cold, wet, or windy it might be!

Date:

Astronomy

Dec. 12, 2011 Rise Set
Actual Time 7:56 AM CST 4:54 PM CST
Civil Twilight 7:23 AM CST 5:27 PM CST
Nautical Twilight 6:47 AM CST 6:03 PM CST
Astronomical Twilight 6:12 AM CST 6:38 PM CST
Moon 7:09 PM CST (12/12) 9:28 AM CST (12/12)
Length of Visible Light 10h 03m
Length of Day
8h 58m
Waning Gibbous, 95% of the Moon is Illuminated
Dec 12
Waning Gibbous
Dec 17
Last Quarter
Dec 24
New
Jan 1
First Quarter
Jan 9
Full

Hourly Weather History & Observations

Time (CST) Temp. Windchill Dew Point Humidity Pressure Visibility Wind Dir Wind Speed Gust Speed Precip Events Conditions
12:53 AM 23.0 °F 14.7 °F 21.9 °F 96% 30.00 in 4.0 mi South 6.9 mph - 0.00 in   Clear
1:53 AM 23.0 °F 14.7 °F 21.0 °F 92% 30.01 in 3.0 mi SSE 6.9 mph - N/A   Clear
2:12 AM 26.6 °F 19.1 °F 24.8 °F 93% 29.97 in 4.0 mi South 6.9 mph - N/A   Mostly Cloudy
2:39 AM 28.4 °F 21.2 °F 26.6 °F 93% 29.97 in 4.0 mi South 6.9 mph - N/A   Scattered Clouds
2:53 AM 30.0 °F 23.2 °F 28.0 °F 92% 30.02 in 5.0 mi SSW 6.9 mph - N/A   Clear
3:31 AM 28.4 °F 22.2 °F 26.6 °F 93% 29.99 in 5.0 mi SSW 5.8 mph - N/A   Partly Cloudy
3:53 AM 28.9 °F 21.9 °F 27.0 °F 92% 30.04 in 5.0 mi SSW 6.9 mph - N/A   Partly Cloudy
4:53 AM 27.0 °F - 24.1 °F 89% 30.05 in 4.0 mi Calm Calm - N/A   Clear
5:53 AM 25.0 °F 20.7 °F 23.0 °F 92% 30.07 in 4.0 mi WSW 3.5 mph - N/A   Clear
6:15 AM 19.4 °F 9.5 °F 17.6 °F 93% 30.03 in 1.2 mi WNW 8.1 mph - N/A   Partly Cloudy
6:17 AM 19.4 °F 10.4 °F 17.6 °F 93% 30.03 in 0.8 mi WNW 6.9 mph - N/A   Mist
6:42 AM 17.6 °F 7.3 °F 15.8 °F 93% 30.05 in 0.2 mi WNW 8.1 mph - N/A Fog Light Freezing Fog
6:50 AM 17.6 °F 7.3 °F 15.8 °F 93% 30.05 in 1.0 mi WNW 8.1 mph - N/A   Overcast
6:53 AM 18.0 °F 6.9 °F 16.0 °F 92% 30.11 in 1.0 mi NW 9.2 mph - N/A   Mist
7:00 AM 19.4 °F 10.4 °F 17.6 °F 93% 30.06 in 0.8 mi NW 6.9 mph - N/A   Mist
7:37 AM 19.4 °F - 19.4 °F 100% 30.06 in 0.2 mi Calm Calm - N/A Fog Light Freezing Fog
8:53 AM 24.1 °F 18.2 °F 21.9 °F 91% 30.16 in 0.2 mi NW 4.6 mph - N/A Fog Light Freezing Fog
9:31 AM 26.6 °F 21.2 °F 24.8 °F 93% 30.11 in 0.2 mi North 4.6 mph - N/A Fog Light Freezing Fog
9:53 AM 27.0 °F 20.5 °F 26.1 °F 96% 30.18 in 0.2 mi NNW 5.8 mph - N/A Fog Light Freezing Fog
10:18 AM 28.4 °F 22.2 °F 26.6 °F 93% 30.14 in 0.8 mi NNW 5.8 mph - N/A   Overcast
10:26 AM 28.4 °F 20.4 °F 26.6 °F 93% 30.14 in 1.5 mi North 8.1 mph - N/A   Overcast
10:53 AM 28.9 °F 21.1 °F 27.0 °F 92% 30.22 in 1.8 mi NW 8.1 mph - N/A   Overcast
11:35 AM 26.6 °F 17.5 °F 24.8 °F 93% 30.16 in 3.0 mi NNW 9.2 mph - N/A   Overcast
11:53 AM 26.1 °F 15.6 °F 24.1 °F 92% 30.22 in 3.0 mi NNW 11.5 mph - N/A   Overcast
12:06 PM 26.6 °F 16.2 °F 24.8 °F 93% 30.16 in 2.5 mi NNW 11.5 mph - N/A   Overcast
12:53 PM 26.1 °F 16.2 °F 23.0 °F 88% 30.23 in 3.0 mi NNW 10.4 mph - N/A   Overcast
1:53 PM 24.1 °F 13.1 °F 21.9 °F 91% 30.25 in 4.0 mi NNW 11.5 mph - N/A   Overcast
2:53 PM 23.0 °F 12.4 °F 21.0 °F 92% 30.25 in 4.0 mi NNW 10.4 mph - N/A   Overcast
3:53 PM 23.0 °F 10.6 °F 21.0 °F 92% 30.27 in 5.0 mi NNW 13.8 mph - N/A   Overcast
5:53 PM 24.1 °F 13.1 °F 21.9 °F 91% 30.30 in 5.0 mi NNW 11.5 mph - N/A   Overcast
6:53 PM 24.1 °F 14.4 °F 21.9 °F 91% 30.33 in 5.0 mi NNW 9.2 mph - N/A   Overcast
7:53 PM 24.1 °F 16.0 °F 21.9 °F 91% 30.35 in 5.0 mi NNW 6.9 mph - N/A   Overcast
8:53 PM 25.0 °F 17.1 °F 23.0 °F 92% 30.33 in 5.0 mi North 6.9 mph - N/A   Overcast
9:53 PM 25.0 °F 17.1 °F 23.0 °F 92% 30.34 in 5.0 mi NNW 6.9 mph - N/A   Overcast
10:53 PM 25.0 °F 17.1 °F 23.0 °F 92% 30.34 in 4.0 mi NNW 6.9 mph - N/A   Overcast
11:53 PM 25.0 °F 18.1 °F 23.0 °F 92% 30.34 in 4.0 mi North 5.8 mph - N/A   Overcast